GSAT0218 (GALILEO 22) (43058 NORAD) Tracking and Keplerian Element Data

This shows tracking and keplerian element data for the satellite.

Feedback or suggestion? Click here.




ElementValue
Catalog43058
NameGSAT0218 (GALILEO 22)
Epoch Orbit1101
Epoch Day261.50835794
Epoch Year2019
RAAN289.2786
Inclination56.4853
Eccentricity0.0006456
Argument of Perigee251.9774
Mean Anonmoly108.0049
Mean Motion1.70474152
Decay Rate1.5E-07
L11 43058U 17079D 19261.50835794 .00000015 00000-0 00000-0 0 9990
L22 43058 56.4853 289.2786 0006456 251.9774 108.0049 1.70474152 11017

Live tracking and technical data element details for GSAT0218 (GALILEO 22) (NORAD 43058). GSAT0218 (GALILEO 22) can be tracked NOW for your location showing map with azimuth and elevation plus other details from your city location.

Track the satellite on the map from your city or location and see movement details for azimuth, elevation, latitude, longitude, range, height, and movement on the map or in text.







IsCatalogInMostPopularTable: catalog: 43058, numindb: 334
Update: records affected: 1



GetName: 43058 GSAT0218 (GALILEO 22)

Hit Count: updated at: Thu, 19 Sep 2019 16:36:41 GMT